Wind_Speed
65 66 70 72 70 69 68 59 52 51 50 51 50 49 48 47 47 48 49 49 50 54 57 61 63 64 64 63 62 63 67 67 68 69 72 75 76 74 73 74 74 69 66
67 71 73 71 70 67 61 52 49 49 49 49 48 47 47 47 47 47 48 48 48 51 56 61 66 72 72 73 72 71 73 74 76 76 77 78 80 81 79 76 72 73 71
70 74 73 69 66 61 52 48 50 49 50 51 49 48 48 49 50 51 50 50 49 50 52 55 61 70 77 82 83 82 83 82 81 84 86 84 85 84 84 80 80 78 76
71 72 66 63 56 52 50 49 48 51 51 52 53 53 55 56 57 57 56 55 54 55 55 57 58 61 64 70 77 84 91 94 95 94 94 95 93 90 86 85 85 83 81
68 62 59 55 52 48 49 49 49 49 50 50 51 53 55 56 57 58 58 59 60 62 63 63 64 66 68 70 72 74 77 80 83 85 85 86 88 87 87 87 87 86 86
59 55 51 50 48 49 50 49 51 50 50 51 51 52 53 55 57 59 60 62 63 66 69 71 73 74 76 77 79 81 82 84 85 87 88 89 89 90 91 91 91 92 91
48 49 47 45 45 43 45 47 47 46 47 50 52 54 55 57 59 62 65 67 68 70 72 74 77 79 82 83 85 88 90 91 93 94 94 95 96 96 97 96 96 96 96
48 46 44 44 45 45 45 46 48 49 50 53 55 58 61 62 62 66 70 73 74 77 78 80 82 84 87 90 92 93 95 96 98 99 101 102 103 104 104 105 105 104 103
44 45 45 45 46 47 48 50 52 54 57 58 60 63 64 68 70 76 79 82 83 85 86 87 89 90 92 94 96 99 101 102 104 105 106 107 108 109 110 110 110 109 109
44 46 46 47 49 50 52 54 57 60 62 65 67 69 71 72 74 75 86 91 91 90 91 93 95 97 98 99 100 100 102 104 106 108 110 110 111 112 112 114 115 115 114
46 49 51 52 53 54 57 59 62 66 69 72 74 77 80 81 82 81 82 89 93 95 94 94 96 98 100 101 102 104 106 108 110 111 113 114 115 116 116 116 117 119 120
50 52 54 57 58 60 62 65 68 72 75 79 82 85 86 88 92 96 94 92 87 86 90 94 97 100 103 106 108 109 110 113 114 116 117 118 118 117 116 115 114 115 115
53 56 59 62 62 65 68 72 74 78 83 87 90 93 95 97 101 103 98 92 86 86 89 92 97 101 104 106 106 107 108 108 108 110 111 112 113 113 114 114 114 115 116
57 62 63 64 66 70 74 78 81 87 91 93 97 99 104 107 104 98 95 92 90 91 88 91 97 100 101 101 103 106 108 110 111 113 114 116 116 116 117 117 117 117 118
62 64 66 68 72 76 80 84 90 94 97 101 105 109 111 102 98 99 101 100 95 87 87 92 94 98 102 105 108 112 115 116 118 120 123 124 124 124 125 124 124 124 123
65 68 69 73 78 82 86 91 96 99 104 108 112 111 102 101 103 101 100 101 102 101 94 97 101 107 111 115 118 120 121 123 124 125 126 126 128 130 130 128 129 130 129
71 73 76 80 83 88 93 98 100 106 110 115 110 103 105 103 100 101 99 102 107 113 114 110 115 120 122 124 125 124 122 119 118 119 119 117 116 115 114 113 114 117 118
75 78 81 84 89 94 99 102 107 112 116 109 106 105 101 100 97 100 106 111 117 122 126 125 123 125 124 122 116 111 109 105 102 103 104 104 103 101 101 101 102 102 103
78 81 85 90 94 99 104 108 112 116 107 106 103 99 97 98 104 110 116 121 125 127 132 131 119 116 111 107 102 100 98 97 94 93 93 90 90 90 91 92 93 93 92
81 85 91 95 99 104 108 112 115 105 106 103 100 96 102 108 114 119 123 127 130 130 126 116 110 104 102 98 95 90 89 87 84 83 81 82 82 81 82 82 81 82 82
87 92 96 100 103 107 112 112 103 104 100 96 98 104 111 117 122 127 130 131 130 122 111 103 102 98 94 89 86 84 79 79 78 72 75 76 72 72 70 69 73 74 73
91 96 100 103 108 112 107 104 101 97 95 99 105 112 119 124 127 131 132 127 120 108 99 94 94 90 89 82 81 75 72 69 70 64 67 67 63 66 61 63 62 62 65
96 99 102 108 110 102 102 97 93 94 100 107 114 120 124 129 131 129 121 116 110 103 96 89 88 84 82 76 73 70 64 61 59 60 60 56 56 55 53 53 53 55 55
98 103 107 106 100 99 92 91 93 100 107 115 122 127 129 131 127 117 109 105 101 96 89 85 81 77 73 70 66 62 60 55 49 49 52 48 48 43 43 45 45 43 44
103 107 99 99 94 92 89 94 99 106 113 120 126 130 130 123 114 107 100 96 92 88 83 76 72 69 66 62 60 58 54 49 43 41 41 39 38 36 34 37 36 36 37
100 95 96 91 88 89 94 100 107 113 118 124 130 129 121 113 107 99 94 88 85 81 77 71 65 62 58 54 49 47 47 44 40 37 34 33 31 33 25 34 30 31 30
Wind_Direction
290 292 293 296 299 298 301 297 290 290 291 292 294 294 292 293 293 291 290 289 287 280 270 264 256 256 255 257 261 263 265 266 265 266 269 273 274 277 279 281 280 278 274
289 292 293 295 297 297 298 294 291 292 294 297 297 295 295 294 292 292 290 289 287 285 278 272 265 259 258 257 258 259 260 260 263 265 271 272 274 275 276 278 275 276 273
288 291 292 292 294 296 296 295 294 297 299 298 299 298 298 298 297 295 292 289 286 285 282 278 274 267 265 263 261 261 260 261 263 266 267 270 272 274 275 273 271 270 271
286 289 288 291 294 297 299 297 297 300 300 300 300 300 299 297 295 294 293 292 287 284 282 279 278 276 274 272 270 268 266 266 265 264 268 269 270 271 271 271 271 269 268
285 284 287 290 297 297 297 297 297 297 297 295 294 295 295 294 294 293 292 290 288 287 284 281 278 275 273 272 271 271 271 270 270 270 270 269 270 269 269 268 268 267 267
281 281 285 292 295 294 294 296 294 293 293 293 293 292 292 293 293 292 291 290 289 287 285 284 282 280 278 276 273 271 268 267 267 267 267 267 266 266 266 267 267 266 266
278 283 285 290 291 293 292 289 290 292 293 294 296 296 296 297 296 295 294 292 289 286 283 281 280 280 278 276 275 274 273 272 271 270 269 269 268 267 266 265 264 263 264
280 281 284 286 287 287 288 290 291 291 292 294 294 296 298 297 296 296 295 293 291 288 285 282 280 278 277 277 277 276 274 273 272 271 271 271 271 270 269 268 267 266 265
278 280 281 282 284 285 287 288 290 292 292 291 293 295 296 297 298 300 299 297 295 291 288 285 283 281 279 277 275 274 273 272 272 271 271 270 269 269 268 268 268 268 268
275 278 279 282 283 284 286 289 291 292 294 294 293 293 294 294 293 295 298 298 296 294 291 288 286 284 283 281 279 277 275 274 273 272 271 271 270 269 268 267 267 266 266
275 279 281 283 283 285 286 288 291 294 295 296 296 295 295 294 291 290 291 292 293 290 288 286 285 284 283 282 281 280 279 277 276 275 275 274 272 271 270 268 267 265 264
277 280 282 284 285 287 289 291 293 294 296 298 298 297 296 296 296 296 294 291 288 286 287 288 288 286 285 283 282 281 279 278 276 275 274 274 273 273 272 271 269 268 267
279 282 283 285 286 289 290 292 294 297 298 299 300 300 300 299 298 297 295 292 290 289 288 287 285 285 285 285 284 283 282 281 279 277 276 274 273 272 271 270 269 268 267
282 283 283 285 286 289 291 295 297 300 300 301 302 303 302 301 299 298 296 295 293 292 291 290 288 287 286 284 282 282 282 281 279 278 276 274 272 271 270 269 268 268 267
282 284 286 287 290 292 294 298 300 301 303 304 304 304 303 301 301 300 299 298 296 293 292 291 289 287 286 285 284 283 282 280 279 278 277 276 275 274 273 271 270 269 267
285 285 287 289 292 294 298 300 302 304 305 305 304 304 303 303 303 302 301 300 300 298 295 293 291 291 290 289 287 286 284 282 281 279 278 277 276 275 275 275 274 273 272
285 286 289 292 295 297 298 301 303 305 305 305 305 304 304 304 303 302 302 301 300 299 299 298 298 296 294 291 289 287 285 283 283 281 279 278 277 277 276 275 274 273 271
286 288 291 295 297 298 301 303 304 305 305 305 305 305 304 304 303 302 302 302 302 302 303 302 299 297 296 292 291 289 287 286 283 281 279 279 279 278 276 274 272 270 269
289 291 295 297 298 300 302 303 304 305 305 305 305 305 304 304 304 304 304 304 304 304 303 302 302 300 297 294 293 292 290 287 286 283 281 280 278 276 274 272 271 270 269
292 295 297 298 300 301 303 304 305 305 305 305 305 305 306 306 305 305 305 305 305 304 303 304 303 300 298 298 297 294 293 291 289 286 286 282 278 275 273 274 274 271 268
293 296 298 299 300 302 303 304 305 305 305 304 306 307 306 305 306 306 307 308 306 305 306 306 304 302 300 299 298 296 295 292 289 289 285 281 284 281 277 274 271 270 269
295 297 298 300 302 303 305 304 306 305 305 307 307 306 305 306 307 309 309 308 306 307 308 306 304 304 302 302 300 300 297 295 293 289 286 286 283 281 280 276 276 274 271
296 298 300 301 303 303 304 305 305 307 308 308 307 306 306 308 310 310 309 309 309 309 309 309 306 305 305 304 303 302 300 297 296 293 290 290 284 283 281 278 274 272 272
298 300 302 302 303 305 306 306 308 309 309 308 307 307 309 311 311 311 311 310 310 310 309 309 308 307 307 306 304 303 302 300 298 292 291 288 284 282 282 279 278 275 271
300 301 302 303 305 305 306 308 309 309 309 308 307 309 312 312 312 310 311 310 310 309 311 311 310 309 308 308 307 307 305 303 301 298 294 293 291 287 285 281 281 278 273
300 301 304 305 305 306 308 310 310 309 308 309 311 312 314 313 312 313 313 313 312 313 313 312 311 310 309 309 308 307 307 307 306 303 297 298 295 295 291 288 284 281 279
Height
10767 10763 10759 10755 10752 10746 10740 10735 10731 10726 10722 10718 10713 10709 10707 10703 10699 10695 10693 10691 10689 10687 10685 10685 10684 10684 10684 10685 10686 10685 10684 10685 10685 10684 10682 10680 10679 10679 10679 10679 10678 10678 10679
10756 10752 10747 10744 10741 10735 10730 10725 10722 10718 10714 10710 10705 10701 10698 10695 10690 10687 10684 10682 10679 10676 10674 10672 10671 10670 10670 10669 10669 10669 10668 10668 10667 10665 10664 10663 10663 10663 10662 10661 10661 10661 10660
10745 10741 10737 10734 10729 10724 10720 10716 10713 10709 10705 10701 10697 10693 10691 10686 10682 10679 10675 10672 10669 10665 10662 10659 10658 10657 10655 10653 10652 10650 10650 10650 10649 10648 10646 10644 10643 10643 10643 10643 10642 10642 10642
10735 10731 10728 10723 10719 10714 10711 10708 10704 10700 10695 10690 10686 10683 10680 10675 10671 10668 10665 10662 10657 10653 10650 10647 10643 10641 10639 10636 10634 10631 10630 10630 10628 10627 10626 10625 10623 10621 10621 10621 10621 10622 10623
10724 10720 10717 10713 10709 10705 10702 10699 10696 10691 10686 10681 10676 10672 10670 10664 10660 10656 10653 10649 10644 10641 10636 10633 10629 10625 10622 10619 10615 10612 10609 10607 10605 10603 10603 10601 10600 10599 10599 10599 10600 10600 10600
10712 10710 10707 10704 10699 10696 10693 10690 10687 10683 10677 10671 10666 10662 10659 10654 10648 10643 10639 10634 10630 10626 10621 10616 10612 10608 10603 10599 10596 10592 10589 10585 10582 10579 10577 10577 10577 10575 10574 10575 10575 10576 10577
10702 10700 10697 10693 10690 10687 10683 10680 10677 10673 10668 10662 10656 10650 10646 10642 10636 10630 10624 10618 10614 10608 10603 10599 10593 10588 10582 10578 10575 10571 10567 10563 10561 10558 10556 10553 10551 10550 10549 10550 10551 10551 10550
10692 10690 10687 10685 10682 10679 10675 10671 10667 10663 10659 10653 10647 10640 10633 10627 10624 10617 10609 10602 10597 10589 10583 10579 10573 10567 10561 10555 10549 10545 10541 10538 10534 10531 10528 10525 10524 10523 10522 10520 10521 10523 10524
10682 10680 10678 10676 10673 10670 10665 10660 10655 10650 10647 10643 10636 10630 10624 10615 10607 10595 10586 10577 10574 10565 10559 10553 10546 10541 10536 10530 10524 10518 10512 10509 10506 10502 10498 10497 10496 10495 10492 10491 10491 10492 10493
10673 10672 10669 10666 10662 10659 10655 10649 10644 10638 10633 10627 10621 10616 10609 10605 10600 10595 10571 10554 10546 10538 10530 10522 10514 10507 10501 10496 10491 10488 10483 10478 10473 10469 10465 10464 10463 10461 10462 10461 10463 10462 10461
10664 10662 10659 10656 10651 10646 10642 10637 10631 10625 10617 10610 10604 10596 10589 10582 10575 10576 10574 10553 10532 10517 10508 10499 10489 10479 10470 10462 10457 10451 10446 10441 10437 10432 10428 10425 10423 10422 10422 10422 10424 10425 10425
10654 10651 10648 10643 10639 10634 10628 10622 10615 10608 10601 10593 10584 10575 10567 10558 10547 10538 10537 10532 10527 10509 10491 10473 10461 10451 10440 10432 10425 10419 10414 10407 10402 10397 10392 10386 10382 10380 10379 10380 10380 10380 10382
10642 10639 10635 10631 10626 10620 10613 10605 10598 10590 10582 10572 10562 10551 10541 10530 10520 10508 10501 10497 10492 10484 10473 10462 10447 10429 10413 10402 10393 10383 10377 10371 10366 10359 10353 10347 10344 10342 10340 10340 10340 10339 10340
10631 10627 10622 10617 10611 10604 10596 10588 10579 10570 10560 10550 10538 10526 10514 10501 10488 10476 10467 10462 10462 10452 10443 10430 10415 10400 10388 10378 10366 10353 10345 10335 10328 10321 10314 10307 10304 10302 10299 10300 10301 10303 10302
10617 10612 10607 10602 10595 10587 10579 10570 10560 10550 10537 10525 10512 10498 10485 10472 10459 10445 10433 10420 10412 10419 10423 10402 10385 10371 10356 10344 10331 10318 10308 10302 10295 10283 10270 10261 10258 10255 10252 10253 10255 10258 10260
10604 10598 10593 10586 10579 10571 10562 10552 10539 10527 10514 10500 10486 10472 10456 10445 10431 10416 10402 10389 10374 10365 10375 10371 10359 10340 10323 10307 10292 10279 10266 10253 10242 10231 10225 10220 10213 10205 10202 10202 10203 10204 10206
10589 10583 10577 10570 10561 10552 10542 10531 10518 10505 10490 10474 10459 10446 10431 10418 10405 10391 10377 10362 10347 10326 10316 10331 10314 10297 10283 10263 10245 10231 10218 10208 10197 10185 10175 10169 10164 10163 10162 10163 10161 10156 10152
10575 10568 10561 10553 10543 10532 10520 10509 10495 10480 10464 10448 10435 10421 10405 10393 10379 10365 10351 10335 10317 10296 10273 10264 10269 10252 10231 10208 10198 10185 10172 10164 10157 10148 10138 10131 10127 10124 10121 10117 10116 10116 10113
10560 10552 10544 10533 10522 10511 10499 10485 10471 10455 10438 10424 10410 10396 10382 10369 10353 10336 10320 10304 10284 10267 10244 10221 10218 10197 10181 10164 10157 10145 10134 10124 10118 10110 10100 10102 10096 10088 10082 10079 10077 10076 10076
10543 10535 10525 10514 10503 10490 10476 10462 10447 10431 10415 10398 10384 10370 10356 10339 10322 10306 10290 10270 10251 10232 10210 10194 10176 10160 10142 10131 10120 10112 10098 10090 10083 10075 10072 10063 10056 10054 10052 10050 10049 10046 10043
10525 10516 10505 10493 10483 10468 10453 10439 10424 10408 10392 10376 10362 10346 10328 10310 10294 10274 10254 10236 10208 10191 10179 10164 10141 10125 10112 10102 10091 10079 10076 10062 10052 10053 10037 10028 10033 10027 10024 10021 10015 10014 10015
10507 10496 10485 10473 10458 10444 10429 10415 10400 10385 10368 10354 10339 10321 10301 10283 10265 10245 10221 10196 10169 10157 10150 10133 10114 10100 10082 10077 10062 10056 10046 10039 10027 10026 10013 10009 10006 9997 10000 9994 9993 9989 9988
10487 10476 10464 10450 10435 10422 10408 10393 10377 10363 10347 10328 10310 10292 10275 10253 10232 10213 10190 10163 10141 10126 10115 10106 10087 10073 10059 10051 10040 10030 10024 10018 10010 9998 9991 9992 9983 9980 9975 9973 9969 9967 9968
10466 10454 10440 10427 10413 10399 10385 10371 10358 10342 10324 10302 10279 10259 10242 10225 10199 10180 10161 10138 10118 10103 10091 10079 10065 10050 10039 10028 10020 10012 10002 9998 9995 9985 9976 9975 9967 9965 9958 9953 9952 9952 9951
10445 10432 10419 10406 10392 10377 10365 10352 10338 10321 10301 10278 10254 10231 10212 10194 10173 10154 10138 10118 10099 10082 10070 10058 10045 10032 10021 10011 10001 9991 9987 9981 9977 9970 9963 9958 9953 9949 9947 9941 9941 9939 9936
10424 10411 10396 10384 10372 10359 10346 10332 10314 10295 10278 10256 10229 10203 10182 10162 10144 10126 10110 10094 10075 10061 10047 10038 10029 10018 10007 9998 9989 9982 9972 9967 9963 9957 9951 9946 9942 9937 9938 9929 9929 9927 9925